NIMBUS 2 DEB, 28204

Orbit data source: Space-Track

NIMBUS 2 DEB, 28204 is space debris in SSO originally from a launch on Sun, 15 May 1966 UTC launched from the Air Force Western Test Range (AFWTR). Debris objects in space refer to the collection of defunct objects orbiting the Earth. Examples of debris include non-operational satellites, rocket bodies, and fragments generated from explosions, collisions, or faulty payload assembly.

Loading next visibility...
Identifier
28204, 1966-040S
Orbit
SSO
Country
Flag of USUS
Related business
Manufacturer
Unknown
Mission
Spacecraft
Bus & Motor
Unknown
Mass
Unknown
Launch date (UTC)
1966-05-15 (60 years ago)
Launch vehicle
Unknown
Launch site
Air Force Western Test Range (AFWTR)
Object type
Payload
Rocket body
Debris
Shape & HBR
Unknown shape, 0.1 m
Radar Cross Section
Small (<0.1 m²)

Expand to show TLE details & history
Last TLE update: 4 days ago

TLE from 4 days ago
0 NIMBUS 2 DEB
1 28204U 66040S   26124.28656318  .00003587  00000-0  36548-2 0  9997
2 28204 100.1870  48.3857 0035238 105.4301  46.2228 13.77179245624625
Epoch: 2026-05-04T06:52Z
TLE epoch observation values (Epoch: 2026-05-04T06:52:39.058Z)
Latitude
27.61611°
Longitude
-91.58905°
Altitude
959.314 km
Speed
7.383 km/s
True Right ascension
15h 35m 00s
True Declination
27° 28' 44"
Sunlit
Object was in full shadow at epoch
Visualization orbit readout
Latitude
Unknown
Longitude
Unknown
Altitude
Unknown
Speed
Unknown
Apparent Right ascension
Unknown
Apparent Declination
Unknown
Sunlit
N/A
Visualization observer readout
Local Sidereal Time
20:17:07
Azimuth
Unknown
Elevation
Unknown
Doppler factor
Unknown
Orbital elements
Apogee altitude
997.097 km
Perigee altitude
945.302 km
Semi-major axis
7,349.337 km
Eccentricity
0.00352
Inclination
100.187°
RAAN
48.3857°
Arg. of periapsis
105.4301°
True anomaly
46.51525°
Mean anomaly
46.2228°
Eccentric anomaly
46.36893°
Mean motion
3.44486 °/min
Orbital period
104.5 mins
BSTAR
0.0036548
Loading maneuver chart data...
Computing Atmospheric mass density...
Loading historical data...
Loading historical data...
Loading historical data...
Loading historical data...
Loading historical data...
Loading historical data...
Loading historical data...

Documentation

Showing up to 5 results
|